Location: Balsareny
(41.8670°N, 1.8830°E)
Time: 01:18:21
(UTC+02:00)

X-37B - Pass Details

Date: 23 June 2021
Orbit: 383 x 392 km, 45.0° (Epoch: 01 July)

Event Time Altitude Azimuth Distance (km) Brightness Sun altitude
Exits shadow 04:22:05 42° 177° (S) 561 1.0 -16.3°
Drops below altitude 10° 04:24:39 10° 132° (SE) 1,401 3.3 -16.1°
Sets 04:26:45 0° 127° (SE) 2,253 4.5 -15.8°
